Wind_Speed
11 12 12 12 13 14 14 14 14 14 15 16 17 17 16 15 16 17 17 17 18 18 18 18 19 19 19 19 19 20 20 20 20 20 20 21 21 21 21 21 21 21 21
13 13 13 14 14 14 15 15 15 15 16 18 18 18 17 17 18 19 19 19 18 19 19 19 19 20 19 20 20 21 21 22 21 21 21 22 22 22 23 22 22 23 23
15 15 15 15 15 15 16 16 16 16 17 18 19 19 18 19 20 20 20 20 20 20 19 19 20 20 20 20 20 21 22 22 22 23 23 23 23 23 24 24 24 24 24
16 16 17 16 16 17 18 18 18 19 20 19 20 20 20 21 21 21 21 21 21 20 20 20 21 21 21 21 21 22 22 23 23 23 23 24 24 24 25 25 25 25 25
17 18 18 18 18 19 19 20 20 21 21 21 21 22 22 21 21 21 21 21 22 21 22 22 23 23 23 23 23 23 23 23 24 24 24 24 24 25 26 26 26 26 26
18 18 19 19 19 20 21 21 21 22 22 22 22 22 21 22 22 21 21 21 22 23 23 24 24 23 24 24 24 24 24 25 25 25 25 25 25 26 27 27 27 28 27
20 20 21 21 21 21 22 23 23 23 24 23 23 23 23 22 21 21 22 22 23 24 24 24 24 25 26 26 25 25 26 26 26 26 26 25 25 26 27 27 27 28 28
23 24 24 24 25 24 24 24 24 24 24 24 23 23 23 23 23 23 22 23 24 25 25 26 26 27 27 26 26 26 26 27 27 27 27 26 26 26 27 27 28 28 28
25 26 27 27 27 26 25 25 25 25 25 25 25 25 25 25 24 24 24 24 24 25 26 26 26 26 26 26 27 27 27 27 27 27 27 27 27 27 28 28 29 29 29
26 27 27 26 27 26 26 26 27 26 27 27 27 27 26 26 25 25 26 26 26 27 27 27 26 27 26 27 27 27 27 27 27 27 27 28 28 28 29 29 29 30 30
26 26 26 26 26 27 27 27 27 28 28 28 28 27 27 27 26 26 27 27 28 28 28 27 27 27 27 27 27 26 26 26 26 27 28 29 30 30 30 30 31 31 31
28 27 27 27 27 28 28 28 28 28 28 28 29 29 29 29 28 27 27 28 28 28 27 27 28 27 27 27 27 26 26 27 27 27 28 29 30 30 31 31 31 32 32
30 29 29 30 30 29 29 29 29 29 30 30 30 31 30 30 29 29 29 29 29 28 28 29 29 29 29 29 28 28 28 28 28 29 29 30 31 31 31 32 33 33 33
31 30 30 30 30 31 31 32 31 31 31 31 31 31 30 30 30 30 30 30 29 29 29 29 30 31 30 30 30 30 30 30 30 31 31 31 32 32 32 33 33 34 34
32 32 32 31 31 32 32 32 32 31 30 30 30 31 31 30 30 30 30 30 30 31 31 31 32 32 32 32 31 31 31 31 32 32 33 34 34 34 34 35 35 35 35
33 32 32 32 32 31 31 31 31 30 30 30 30 30 29 29 29 29 30 30 31 32 32 33 34 34 33 32 32 33 33 34 34 35 34 35 35 35 36 35 35 35 36
33 32 31 31 31 31 30 30 29 29 29 29 29 29 29 30 30 30 30 31 32 33 34 34 34 34 34 34 34 34 34 35 36 36 36 36 36 36 36 35 36 36 36
31 31 30 29 30 30 29 28 28 28 28 29 29 30 30 31 31 31 32 32 33 33 34 34 34 34 34 35 35 35 36 36 37 37 37 37 37 37 37 37 37 37 37
29 29 29 29 28 28 28 28 28 28 28 29 29 30 31 31 31 32 32 33 33 34 34 34 34 34 35 35 36 37 37 37 37 38 38 38 39 39 39 40 39 38 38
28 29 29 28 28 27 27 27 27 27 27 28 29 30 31 30 30 31 32 33 33 34 34 34 34 35 35 36 36 36 37 38 38 39 39 39 40 40 41 40 40 40 39
28 28 28 28 27 27 27 27 27 27 27 28 29 29 30 29 30 31 32 32 33 33 34 35 36 36 36 36 36 37 37 39 39 40 40 41 41 41 41 41 40 40 40
29 28 28 28 28 28 28 29 28 27 27 27 28 28 29 29 30 31 32 33 34 34 34 35 36 36 36 37 37 37 38 39 39 39 39 40 41 41 40 40 40 39 38
28 28 28 28 27 27 27 27 27 28 28 27 28 28 29 30 31 32 33 33 34 35 36 36 36 36 36 37 37 38 38 39 39 39 40 40 40 40 39 38 38 37 37
28 27 27 27 27 27 27 26 27 28 28 29 29 29 30 30 32 33 33 33 34 35 35 36 35 35 35 36 36 37 38 39 39 39 40 40 40 39 39 38 37 37 37
26 26 26 26 27 27 27 26 27 28 28 29 29 30 31 31 32 33 34 33 34 34 34 34 35 35 35 36 37 38 39 39 39 40 39 39 39 39 38 37 37 37 37
25 24 24 25 26 26 26 27 28 28 29 29 30 30 31 31 32 33 33 33 33 34 34 34 35 35 35 36 37 38 39 39 39 39 39 39 39 38 38 37 37 36 36
Wind_Direction
287 292 295 296 295 296 299 300 299 297 298 300 299 294 293 293 293 293 292 291 291 291 292 292 291 292 293 292 289 290 291 291 291 291 292 291 289 288 290 291 290 291 291
286 287 289 292 293 295 298 298 297 297 300 302 301 300 294 291 293 293 291 293 291 291 292 292 292 292 293 291 288 288 289 289 289 290 291 291 292 290 289 289 290 291 291
283 287 287 289 290 292 296 299 299 300 302 304 302 301 297 294 294 293 291 294 294 291 292 294 294 294 295 294 290 289 289 289 290 290 290 290 290 291 292 289 290 289 288
283 285 287 285 286 287 291 295 297 300 301 302 301 303 298 293 293 295 294 292 293 292 292 293 294 294 294 293 292 291 291 290 289 289 290 290 289 290 290 289 289 288 287
285 286 288 290 288 287 291 294 296 298 299 302 302 301 300 298 296 297 296 292 291 291 292 292 293 295 294 292 291 291 291 290 290 290 289 291 290 290 290 290 289 288 288
285 287 287 288 288 289 290 293 294 295 297 299 301 304 299 298 299 298 295 294 293 292 291 292 293 294 294 293 292 291 290 289 290 290 289 290 290 290 291 291 290 289 288
283 285 285 286 287 288 290 292 292 292 294 296 298 299 300 300 299 297 295 293 293 294 293 292 293 294 294 292 291 291 290 290 289 289 289 290 291 291 291 291 290 290 290
280 281 283 284 284 286 290 291 291 290 292 293 294 296 297 298 299 297 296 294 294 294 294 292 292 294 295 293 292 291 289 289 288 288 288 288 290 291 292 293 292 292 292
281 281 281 280 280 283 286 287 286 287 289 290 292 293 293 294 295 296 294 294 295 295 295 294 294 293 292 292 291 291 290 288 287 287 288 288 288 290 292 292 293 294 293
280 280 280 278 278 281 283 283 283 285 287 287 289 289 292 292 293 295 296 294 295 296 296 295 295 294 293 292 289 289 291 291 288 288 288 289 289 290 290 292 293 293 293
277 277 277 277 278 281 282 282 283 284 285 286 287 288 290 291 291 292 293 295 296 295 294 295 296 296 295 292 291 292 293 293 292 291 291 290 290 290 291 291 291 292 292
275 275 276 277 278 280 282 282 282 284 287 287 288 290 290 289 289 290 291 293 295 295 295 295 296 295 294 292 291 291 292 293 293 292 292 292 291 291 291 291 291 292 291
275 274 274 275 276 278 280 281 283 285 287 288 288 290 289 288 288 288 289 292 294 294 293 293 294 293 293 292 293 292 292 292 291 291 291 292 292 291 291 290 289 290 289
274 275 276 276 277 279 281 282 283 285 286 287 288 288 288 287 287 288 289 291 291 292 293 293 293 293 292 292 292 293 292 291 291 291 291 292 291 290 290 290 290 290 289
274 275 276 275 276 278 279 281 282 283 284 285 286 287 287 286 287 288 288 289 290 291 291 292 292 293 292 291 292 293 294 293 292 293 291 290 290 289 289 289 289 289 288
272 274 276 275 275 277 279 280 280 282 282 283 286 287 287 286 287 288 288 289 289 290 290 292 292 292 291 291 291 292 292 293 294 295 294 293 292 291 290 289 289 289 288
273 273 275 276 277 278 279 280 280 281 282 284 286 286 286 287 287 288 288 288 289 290 290 292 292 291 291 292 292 292 292 293 294 294 294 294 293 291 291 289 288 288 288
272 272 274 276 277 278 278 280 281 283 284 285 286 287 287 288 288 288 289 289 290 290 290 291 291 291 291 292 292 293 293 293 294 295 294 294 293 291 289 289 288 288 286
271 272 274 276 277 278 280 281 283 285 285 286 287 288 289 289 290 289 289 290 291 291 293 293 292 292 292 292 293 293 294 295 295 295 295 294 293 290 289 288 287 287 285
271 272 273 274 275 277 280 282 283 285 286 288 288 290 290 291 291 291 291 292 293 293 293 294 294 295 294 294 295 294 294 295 296 296 295 294 293 292 290 288 286 286 284
272 273 274 273 274 277 280 282 283 284 286 288 289 291 292 292 293 295 296 295 295 295 295 295 296 296 295 295 295 295 296 297 296 295 294 294 294 293 292 289 286 286 285
274 274 273 273 274 277 278 280 281 283 286 288 290 292 293 294 296 298 298 298 298 297 296 296 296 296 295 295 296 296 296 297 297 296 296 295 295 294 292 289 287 285 284
273 274 274 274 275 277 280 279 280 283 286 288 290 291 293 295 296 297 298 298 298 298 298 298 297 297 297 297 297 297 298 299 299 299 298 297 296 294 292 290 287 285 284
275 275 275 275 276 277 279 280 281 283 286 287 289 290 293 295 297 298 298 298 299 299 299 298 298 298 298 299 299 299 301 301 301 301 300 299 298 295 293 291 289 287 286
274 273 274 274 275 277 278 279 282 283 285 286 288 291 293 296 298 299 299 298 299 300 300 300 299 299 299 300 301 301 302 302 302 302 302 300 298 296 293 292 290 289 288
275 276 276 276 277 278 279 280 281 283 284 286 289 292 293 296 298 299 300 301 301 301 302 301 301 301 300 301 302 302 302 302 302 303 302 301 299 297 295 293 291 290 289
Height
5898 5897 5896 5895 5894 5893 5892 5890 5889 5887 5886 5885 5883 5881 5880 5878 5877 5875 5874 5873 5871 5870 5869 5868 5866 5865 5864 5862 5860 5859 5858 5856 5854 5853 5851 5849 5848 5847 5845 5844 5842 5841 5840
5895 5894 5893 5892 5891 5890 5889 5887 5885 5884 5883 5881 5879 5877 5875 5874 5873 5871 5869 5868 5866 5865 5864 5863 5861 5860 5858 5857 5855 5854 5852 5851 5849 5847 5846 5844 5842 5841 5840 5838 5837 5835 5834
5892 5891 5890 5889 5887 5886 5885 5883 5882 5880 5879 5877 5875 5873 5871 5870 5868 5866 5864 5863 5861 5860 5859 5858 5856 5855 5853 5851 5849 5848 5846 5845 5843 5842 5840 5838 5837 5835 5833 5832 5830 5829 5828
5887 5887 5886 5884 5883 5882 5881 5879 5878 5877 5875 5873 5871 5869 5867 5865 5863 5861 5859 5857 5856 5854 5853 5852 5851 5849 5847 5845 5843 5842 5840 5839 5837 5835 5834 5832 5831 5829 5827 5825 5824 5822 5821
5883 5882 5881 5880 5879 5878 5877 5875 5874 5872 5870 5869 5867 5865 5863 5860 5858 5856 5854 5852 5850 5849 5847 5846 5844 5843 5841 5839 5837 5836 5834 5832 5830 5829 5827 5826 5824 5822 5820 5818 5817 5815 5814
5878 5877 5876 5875 5874 5873 5872 5870 5869 5867 5865 5864 5862 5859 5857 5855 5853 5851 5849 5847 5845 5843 5841 5840 5838 5837 5835 5833 5831 5829 5827 5826 5824 5823 5821 5819 5817 5815 5813 5812 5810 5808 5807
5873 5872 5871 5870 5869 5868 5866 5865 5863 5862 5860 5858 5857 5855 5852 5850 5848 5846 5844 5842 5840 5838 5836 5834 5832 5830 5828 5826 5824 5822 5820 5819 5817 5816 5814 5812 5810 5808 5806 5804 5802 5801 5799
5867 5866 5865 5864 5863 5862 5860 5859 5857 5855 5854 5853 5851 5849 5847 5845 5843 5841 5838 5836 5834 5832 5829 5827 5825 5822 5820 5818 5816 5814 5813 5812 5810 5808 5807 5805 5803 5801 5799 5797 5795 5793 5791
5860 5859 5858 5857 5856 5855 5854 5853 5851 5849 5848 5846 5845 5843 5841 5839 5837 5835 5833 5830 5827 5825 5823 5820 5818 5815 5813 5810 5808 5807 5805 5804 5802 5800 5799 5797 5795 5793 5791 5790 5788 5785 5783
5853 5852 5851 5850 5849 5848 5847 5845 5844 5843 5841 5840 5838 5837 5835 5833 5831 5829 5826 5824 5822 5819 5816 5814 5811 5809 5806 5803 5800 5799 5798 5796 5795 5793 5791 5790 5788 5786 5784 5782 5780 5778 5775
5845 5844 5844 5843 5842 5841 5840 5838 5837 5835 5834 5832 5831 5829 5828 5826 5824 5822 5819 5817 5815 5812 5809 5807 5804 5802 5799 5796 5794 5793 5791 5789 5787 5786 5784 5782 5780 5778 5776 5774 5771 5769 5767
5838 5837 5836 5836 5835 5833 5832 5831 5829 5828 5826 5825 5823 5822 5820 5818 5816 5814 5812 5810 5807 5805 5802 5800 5798 5795 5793 5790 5788 5786 5784 5782 5780 5778 5777 5774 5772 5770 5767 5765 5763 5760 5758
5830 5829 5828 5828 5827 5825 5824 5823 5821 5820 5819 5817 5815 5814 5812 5810 5808 5806 5804 5802 5800 5797 5795 5793 5790 5788 5786 5783 5781 5778 5776 5774 5772 5770 5768 5766 5763 5761 5758 5756 5753 5751 5749
5821 5821 5820 5819 5818 5817 5816 5815 5813 5812 5810 5809 5807 5805 5803 5801 5799 5798 5796 5794 5792 5790 5788 5785 5783 5780 5778 5775 5773 5771 5768 5766 5764 5762 5759 5756 5754 5751 5749 5746 5744 5741 5739
5813 5812 5811 5810 5809 5808 5807 5806 5805 5803 5802 5800 5799 5796 5794 5793 5791 5789 5787 5786 5784 5782 5779 5777 5775 5772 5770 5767 5765 5762 5760 5757 5755 5752 5749 5747 5744 5741 5739 5736 5734 5731 5729
5804 5803 5802 5801 5800 5799 5798 5797 5795 5794 5793 5791 5790 5788 5786 5784 5782 5781 5779 5777 5775 5773 5771 5768 5766 5763 5760 5758 5756 5753 5751 5748 5745 5742 5739 5736 5733 5731 5728 5726 5723 5720 5718
5794 5794 5793 5792 5791 5790 5789 5788 5786 5785 5784 5783 5781 5780 5778 5776 5774 5773 5771 5769 5766 5764 5762 5759 5756 5754 5751 5749 5746 5744 5741 5738 5735 5732 5729 5725 5722 5720 5717 5715 5712 5710 5707
5785 5785 5784 5783 5782 5781 5780 5779 5778 5777 5776 5774 5773 5771 5770 5768 5766 5763 5761 5759 5757 5755 5752 5749 5747 5744 5742 5739 5736 5733 5730 5727 5724 5721 5718 5715 5712 5709 5706 5703 5701 5698 5696
5777 5776 5776 5775 5774 5773 5772 5771 5770 5769 5767 5766 5764 5763 5761 5759 5757 5754 5752 5750 5748 5745 5743 5740 5737 5734 5732 5729 5726 5723 5720 5716 5713 5710 5707 5703 5700 5697 5694 5692 5689 5686 5683
5768 5768 5767 5766 5766 5765 5764 5763 5762 5761 5759 5758 5756 5754 5752 5750 5748 5745 5743 5741 5738 5736 5733 5730 5728 5725 5722 5719 5715 5712 5709 5705 5702 5699 5695 5692 5688 5685 5682 5679 5676 5673 5671
5760 5759 5759 5758 5758 5757 5756 5755 5754 5753 5752 5750 5748 5746 5744 5741 5739 5736 5734 5731 5729 5726 5723 5721 5718 5714 5711 5708 5705 5702 5698 5694 5691 5687 5683 5680 5676 5672 5669 5665 5663 5660 5657
5751 5751 5750 5750 5750 5749 5748 5747 5746 5745 5743 5742 5740 5738 5735 5733 5731 5728 5725 5722 5719 5717 5714 5711 5707 5704 5701 5698 5694 5691 5687 5683 5679 5675 5671 5667 5663 5659 5656 5652 5649 5647 5644
5743 5742 5742 5742 5741 5740 5740 5739 5738 5737 5735 5733 5731 5729 5727 5725 5722 5719 5716 5713 5710 5707 5704 5700 5697 5693 5690 5686 5683 5679 5675 5671 5667 5663 5659 5654 5650 5646 5643 5639 5637 5634 5632
5735 5734 5733 5733 5733 5732 5731 5731 5730 5728 5727 5725 5723 5721 5719 5717 5714 5711 5707 5704 5701 5697 5693 5690 5686 5683 5679 5675 5671 5667 5663 5659 5655 5650 5646 5642 5638 5634 5630 5627 5624 5622 5619
5726 5726 5725 5725 5724 5724 5723 5722 5721 5720 5718 5717 5715 5713 5710 5707 5705 5701 5698 5694 5691 5687 5684 5680 5676 5672 5669 5665 5661 5656 5652 5648 5643 5638 5634 5629 5625 5621 5618 5615 5612 5609 5607
5718 5718 5717 5717 5717 5716 5715 5714 5713 5711 5710 5708 5706 5704 5701 5698 5695 5692 5688 5685 5681 5678 5674 5670 5666 5662 5658 5654 5650 5645 5641 5636 5632 5626 5621 5617 5613 5609 5605 5602 5599 5597 5594